User: anonymous   Login
Location: Unspecified
(0.0000°N, 0.0000°E)
Time: 21:29:27
(UTC+02:00)
Language:

Cosmos 1315 Rocket - Orbit

View from above orbital plane
View from above orbital plane
View from above satellite
View from above satellite

Ground track
Ground track

The orbit data is extracted from the following two-line orbital elements,

1 12904U 81103B   17263.89783091 +.00000109 +00000-0 +58768-5 0  9992
2 12904 081.1794 166.2605 0029485 109.7238 250.7170 15.05344312507004
Epoch (UTC): 20 September 2017 21:32:52
Eccentricity: 0.0029485
inclination: 81.1794°
perigee height: 530 km
apogee height: 571 km
right ascension of ascending node: 166.2605°
argument of perigee: 109.7238°
revolutions per day: 15.05344312
mean anomaly at epoch: 250.7170°
orbit number at epoch: 50700

The dashed part of the orbit path shows where the satellite is in the earth's shadow,  

DLR